Погода в Цзаочжуане

Китай     34°51′51″N   117°33′06″E
темп.,
°C
ветер,
м/с
пор.,
м/с
влажн.,
%
обл.,
%
осадки,
мм/ч
давл.,
гПа
погр.,
м
16 апреля, пт
пт1623:00+17з71484100 0.1 1013548
02:00+13ссз41150100 0.1 1014248
05:00+10ссз3331100 0.0 101627
08:00+15св3525100 0.0 1017344
11:00+19юв2223100 0.0 10181103
14:00+22юз4521100 0.0 10161758
17:00+20юз583132 0.0 1014578
20:00+14ююз310430 0.0 1015152
17 апреля, сб
сб1723:00+13сз613430 0.0 1018375
02:00+9ссз38330 0.0 1020117
05:00+8ссз412270 0.0 1021197
08:00+12сз48250 0.0 1024428
11:00+16сз710190 0.0 10242473
14:00+17сз79200 0.0 10222473
17:00+17сз57245 0.0 10222215
20:00+11сз223097 0.0 102310
18 апреля, вс
вс1823:00+10з22284 0.0 102410
02:00+8зсз11310 0.0 102310
05:00+7зсз11290 0.0 102210
08:00+12зсз23311 0.0 1023215
11:00+18зюз3222100 0.0 1023942
14:00+20зюз3220100 0.0 10201579
17:00+20юз2324100 0.0 10181354
20:00+12ююз22490 0.0 101911
19 апреля, пн
пн1923:00+10юз22520 0.0 101910
02:00+9юз11510 0.0 101810
05:00+8ю11530 0.0 101810
08:00+13ююз23430 0.0 1018258
11:00+20ююз45330 0.0 1017977
14:00+23ююз44260 0.0 10141431
17:00+22ю45340 0.0 10141032
20:00+15ю22505 0.0 101615
20 апреля, вт
вт2023:00+13юв225999 0.0 101716
02:00+11вюв2262100 0.0 101618
05:00+9в227271 0.0 101724
08:00+14вюв455946 0.0 1018265
11:00+21вюв573512 0.0 1018987
14:00+24юв67264 0.0 10161577
17:00+22вюв683258 0.0 10161146
20:00+16вюв41345100 0.0 1017264